Location: The Saddle
(36.8333°N, 80.3417°W)
Time: 07:41:19
(UTC-05:00)

A-11 Canister half - Pass Details

Date: 16 December 2023
Orbit: 1512 x 1687 km, 47.2° (Epoch: 27 February)

Event Time Altitude Azimuth Distance (km) Brightness Sun altitude
Rises 02:48:12 0° 301° (WNW) 4,779 - -54.8°
Reaches altitude 10° 02:51:17 10° 303° (WNW) 3,816 - -54.2°
Maximum altitude 03:01:04 74° 29° (NNE) 1,702 - -52.3°
Exits shadow 03:06:11 34° 106° (ESE) 2,489 10.2 -51.3°
Drops below altitude 10° 03:11:10 10° 114° (ESE) 3,929 11.5 -50.3°
Sets 03:14:23 0° 116° (ESE) 4,926 12.2 -49.7°
